Location: Canyon City
(32.5951°N, 116.5278°W)
Time: 03:01:01
(UTC+00:00)

Cosmos 540 Rocket - Pass Details

Date: 08 September 2024
Orbit: 737 x 749 km, 74.1° (Epoch: 10 October)

Event Time Altitude Azimuth Distance (km) Brightness Sun altitude
Rises 12:15:22 0° 346° (NNW) 3,178 6.7 -15.3°
Reaches altitude 10° 12:17:44 10° 349° (N) 2,254 6.0 -14.9°
Maximum altitude 12:22:49 67° 72° (ENE) 804 3.8 -13.8°
Drops below altitude 10° 12:27:53 10° 155° (SSE) 2,250 6.0 -12.8°
Sets 12:30:15 0° 158° (SSE) 3,172 6.8 -12.3°
